| time (UTC) | temp F | wind direction | speed knots | gust knots | rain 1hr in | rain 24hr in | rain mn in | humidity % | barometer mb |
| 20260831224244 | 83 | 104 | 1.7 | 1.7 | 0.00 | 0.01 | 0.00 | ||
| 20260831223742 | 84 | 145 | 3.5 | 3.5 | 0.00 | 0.01 | 0.00 | ||
| 20260831223243 | 84 | 136 | 3.5 | 4.3 | 0.00 | 0.01 | 0.00 | ||
| 20260831222740 | 85 | 136 | 4.3 | 4.3 | 0.00 | 0.01 | 0.00 | ||
| 20260831222241 | 85 | 149 | 3.5 | 5.2 | 0.00 | 0.01 | 0.00 | ||
| 20260831221738 | 84 | 135 | 4.3 | 3.5 | 0.00 | 0.01 | 0.00 | ||
| 20260831221237 | 85 | 118 | 3.5 | 3.5 | 0.00 | 0.01 | 0.00 | ||
| 20260831220734 | 85 | 142 | 4.3 | 4.3 | 0.00 | 0.01 | 0.00 | ||
| 20260831220235 | 85 | 139 | 4.3 | 3.5 | 0.00 | 0.01 | 0.00 | ||
| 20260831215732 | 85 | 145 | 3.5 | 3.5 | 0.00 | 0.01 | 0.00 | ||
| 20260831215233 | 85 | 138 | 3.5 | 4.3 | 0.00 | 0.01 | 0.00 | ||
| 20260831214729 | 85 | 138 | 4.3 | 2.6 | 0.00 | 0.01 | 0.00 | ||
| 20260831214229 | 85 | 142 | 3.5 | 4.3 | 0.00 | 0.01 | 0.00 | ||
| 20260831213728 | 85 | 166 | 4.3 | 4.3 | 0.00 | 0.01 | 0.00 | ||
| 20260831213229 | 86 | 141 | 3.5 | 4.3 | 0.00 | 0.01 | 0.00 | ||
| 20260831212724 | 86 | 136 | 2.6 | 1.7 | 0.00 | 0.01 | 0.00 | ||
| 20260831212225 | 86 | 136 | 0.9 | 1.7 | 0.00 | 0.01 | 0.00 | ||
| 20260831211722 | 86 | 90 | 1.7 | 0.9 | 0.00 | 0.01 | 0.00 | ||
| 20260831211223 | 87 | 127 | 0.9 | 0.0 | 0.00 | 0.01 | 0.00 | ||
| 20260831210719 | 87 | 68 | 0.0 | 0.0 | 0.00 | 0.01 | 0.00 | ||
| 20260831210220 | 87 | 89 | 0.0 | 0.0 | 0.00 | 0.01 | 0.00 | ||
| 20260831205716 | 87 | 24 | 0.0 | 0.0 | 0.00 | 0.01 | 0.00 | ||
| 20260831205217 | 86 | 105 | 0.0 | 0.0 | 0.00 | 0.01 | 0.00 | ||
| 20260831204714 | 86 | 145 | 3.5 | 2.6 | 0.00 | 0.01 | 0.00 | ||
| 20260831204216 | 87 | 125 | 4.3 | 3.5 | 0.00 | 0.01 | 0.00 | ||
| 20260831203712 | 86 | 155 | 1.7 | 3.5 | 0.00 | 0.01 | 0.00 | ||
| 20260831203304 | 86 | 136 | 0.9 | 2.6 | 0.00 | 0.01 | 0.00 | ||
| 20260831203213 | 86 | 136 | 0.9 | 2.6 | 0.00 | 0.01 | 0.00 | ||
| 20260831202711 | 86 | 153 | 3.5 | 2.6 | 0.00 | 0.01 | 0.00 | ||
| 20260831202212 | 86 | 105 | 0.0 | 0.0 | 0.00 | 0.01 | 0.00 | ||
| 20260831201710 | 86 | 105 | 0.0 | 0.0 | 0.00 | 0.01 | 0.00 | ||
| 20260831201211 | 86 | 105 | 0.0 | 0.0 | 0.00 | 0.01 | 0.00 | ||
| 20260831200709 | 86 | 105 | 0.0 | 0.0 | 0.00 | 0.01 | 0.00 | ||
| 20260831200210 | 86 | 105 | 0.0 | 0.0 | 0.00 | 0.01 | 0.00 | ||
| 20260831195708 | 86 | 124 | 0.9 | 1.7 | 0.00 | 0.01 | 0.00 | ||
| 20260831195209 | 86 | 150 | 1.7 | 3.5 | 0.00 | 0.01 | 0.00 | ||
| 20260831194707 | 86 | 139 | 4.3 | 2.6 | 0.00 | 0.01 | 0.00 | ||
| 20260831194208 | 87 | 153 | 3.5 | 4.3 | 0.00 | 0.01 | 0.00 | ||
| 20260831193706 | 86 | 124 | 4.3 | 5.2 | 0.00 | 0.01 | 0.00 | ||
| 20260831193207 | 87 | 145 | 0.9 | 3.5 | 0.00 | 0.01 | 0.00 | ||
| 20260831192706 | 87 | 163 | 2.6 | 1.7 | 0.00 | 0.01 | 0.00 | ||
| 20260831192206 | 86 | 134 | 1.7 | 1.7 | 0.00 | 0.01 | 0.00 | ||
| 20260831191705 | 86 | 135 | 5.2 | 7.0 | 0.00 | 0.01 | 0.00 | ||
| 20260831190703 | 85 | 149 | 5.2 | 5.2 | 0.00 | 0.01 | 0.00 | ||
| 20260831190204 | 86 | 111 | 5.2 | 3.5 | 0.00 | 0.01 | 0.00 | ||
| 20260831185702 | 86 | 82 | 3.5 | 4.3 | 0.00 | 0.01 | 0.00 | ||
| 20260831185203 | 86 | 131 | 5.2 | 6.1 | 0.00 | 0.01 | 0.00 | ||
| 20260831184701 | 86 | 124 | 4.3 | 6.1 | 0.00 | 0.01 | 0.00 | ||
| 20260831184202 | 86 | 128 | 6.1 | 7.0 | 0.00 | 0.01 | 0.00 | ||
| 20260831183658 | 86 | 97 | 4.3 | 4.3 | 0.00 | 0.01 | 0.00 | ||
| 20260831183159 | 86 | 132 | 5.2 | 4.3 | 0.00 | 0.01 | 0.00 | ||
| 20260831182656 | 86 | 111 | 2.6 | 3.5 | 0.00 | 0.01 | 0.00 | ||
| 20260831182157 | 86 | 111 | 2.6 | 1.7 | 0.00 | 0.01 | 0.00 | ||
| 20260831181655 | 86 | 143 | 2.6 | 4.3 | 0.00 | 0.01 | 0.00 | ||
| 20260831181156 | 86 | 134 | 6.1 | 6.1 | 0.00 | 0.01 | 0.00 | ||
| 20260831180654 | 86 | 111 | 5.2 | 2.6 | 0.00 | 0.01 | 0.00 | ||
| 20260831180155 | 86 | 113 | 4.3 | 4.3 | 0.00 | 0.01 | 0.00 | ||
| 20260831175653 | 87 | 131 | 0.9 | 1.7 | 0.00 | 0.01 | 0.00 | ||
| 20260831175154 | 86 | 129 | 3.5 | 2.6 | 0.00 | 0.01 | 0.00 | ||
| 20260831174653 | 86 | 125 | 5.2 | 4.3 | 0.00 | 0.01 | 0.00 | ||
| 20260831174154 | 88 | 125 | 1.7 | 1.7 | 0.00 | 0.01 | 0.00 | ||
| 20260831173652 | 87 | 302 | 2.6 | 1.7 | 0.00 | 0.01 | 0.00 | ||
| 20260831172651 | 86 | 124 | 5.2 | 5.2 | 0.00 | 0.01 | 0.00 | ||
| 20260831172152 | 86 | 321 | 0.9 | 0.9 | 0.00 | 0.01 | 0.00 | ||
| 20260831171650 | 86 | 172 | 1.7 | 2.6 | 0.00 | 0.01 | 0.00 | ||
| 20260831171151 | 86 | 142 | 4.3 | 5.2 | 0.00 | 0.01 | 0.00 | ||
| 20260831170648 | 85 | 150 | 3.5 | 5.2 | 0.00 | 0.01 | 0.00 | ||
| 20260831170147 | 85 | 155 | 4.3 | 4.3 | 0.00 | 0.01 | 0.00 | ||
| 20260831165645 | 85 | 128 | 6.1 | 7.0 | 0.00 | 0.01 | 0.00 | ||
| 20260831165146 | 85 | 153 | 5.2 | 5.2 | 0.00 | 0.01 | 0.00 | ||
| 20260831164145 | 85 | 167 | 0.0 | 1.7 | 0.00 | 0.01 | 0.00 | ||
| 20260831163144 | 85 | 108 | 0.0 | 0.0 | 0.00 | 0.01 | 0.00 | ||
| 20260831162144 | 85 | 105 | 1.7 | 0.9 | 0.00 | 0.01 | 0.00 | ||
| 20260831161642 | 85 | 75 | 0.0 | 0.0 | 0.00 | 0.01 | 0.00 | ||
| 20260831161143 | 85 | 75 | 0.0 | 0.0 | 0.00 | 0.01 | 0.00 | ||
| 20260831160641 | 85 | 84 | 2.6 | 2.6 | 0.00 | 0.01 | 0.00 | ||
| 20260831160142 | 86 | 101 | 1.7 | 1.7 | 0.00 | 0.01 | 0.00 | ||
| 20260831155640 | 85 | 121 | 1.7 | 1.7 | 0.00 | 0.01 | 0.00 | ||
| 20260831155141 | 85 | 115 | 1.7 | 1.7 | 0.00 | 0.01 | 0.00 | ||
| 20260831154639 | 85 | 77 | 1.7 | 1.7 | 0.00 | 0.01 | 0.00 | ||
| 20260831154140 | 85 | 105 | 3.5 | 0.9 | 0.00 | 0.01 | 0.00 | ||
| 20260831145634 | 83 | 86 | 1.7 | 2.6 | 0.00 | 0.01 | 0.00 | ||
| 20260831144135 | 82 | 152 | 1.7 | 3.5 | 0.00 | 0.01 | 0.00 | ||
| 20260831142632 | 81 | 82 | 2.6 | 1.7 | 0.00 | 0.01 | 0.00 | ||
| 20260831142133 | 80 | 80 | 0.9 | 1.7 | 0.00 | 0.01 | 0.00 | ||
| 20260831141132 | 81 | 146 | 2.6 | 3.5 | 0.00 | 0.01 | 0.00 | ||
| 20260831140629 | 80 | 139 | 1.7 | 1.7 | 0.00 | 0.01 | 0.00 | ||
| 20260831134127 | 79 | 153 | 1.7 | 3.5 | 0.00 | 0.01 | 0.00 | ||
| 20260831133126 | 78 | 91 | 3.5 | 1.7 | 0.00 | 0.01 | 0.00 | ||
| 20260831130124 | 77 | 59 | 0.0 | 0.0 | 0.00 | 0.01 | 0.00 | ||
| 20260831125621 | 77 | 59 | 0.0 | 0.0 | 0.00 | 0.01 | 0.00 | ||
| 20260831122616 | 76 | 59 | 0.0 | 0.0 | 0.00 | 0.01 | 0.00 | ||
| 20260831122117 | 76 | 59 | 0.0 | 0.0 | 0.00 | 0.01 | 0.00 | ||
| 20260831121615 | 75 | 59 | 0.0 | 0.0 | 0.00 | 0.01 | 0.00 | ||
| 20260831121116 | 75 | 59 | 0.0 | 0.0 | 0.00 | 0.01 | 0.00 | ||
| 20260831120615 | 75 | 59 | 0.0 | 0.0 | 0.00 | 0.01 | 0.00 | ||
| 20260831120115 | 75 | 59 | 0.0 | 0.0 | 0.00 | 0.01 | 0.00 | ||
| 20260831115612 | 75 | 59 | 0.0 | 0.0 | 0.00 | 0.01 | 0.00 | ||
| 20260831114112 | 75 | 59 | 0.0 | 0.0 | 0.00 | 0.01 | 0.00 | ||
| 20260831113610 | 75 | 59 | 0.0 | 0.0 | 0.00 | 0.01 | 0.00 | ||
| 20260831113111 | 75 | 80 | 0.0 | 0.0 | 0.00 | 0.01 | 0.00 | ||
| 20260831112607 | 75 | 80 | 0.0 | 0.0 | 0.00 | 0.01 | 0.00 | ||
| 20260831111606 | 76 | 93 | 0.0 | 0.0 | 0.00 | 0.01 | 0.00 | ||
| 20260831111107 | 75 | 174 | 0.0 | 1.7 | 0.00 | 0.01 | 0.00 | ||
| 20260831110605 | 75 | 79 | 0.0 | 0.0 | 0.00 | 0.01 | 0.00 | ||
| 20260831110107 | 75 | 79 | 0.0 | 0.0 | 0.00 | 0.01 | 0.00 | ||
| 20260831105603 | 75 | 79 | 0.0 | 0.0 | 0.00 | 0.01 | 0.00 | ||
| 20260831105103 | 75 | 39 | 0.0 | 0.0 | 0.00 | 0.01 | 0.00 | ||
| 20260831104602 | 76 | 39 | 0.0 | 0.0 | 0.00 | 0.01 | 0.00 | ||
| 20260831104103 | 76 | 39 | 0.0 | 0.0 | 0.00 | 0.01 | 0.00 | ||
| 20260831103601 | 75 | 39 | 0.0 | 0.0 | 0.00 | 0.01 | 0.00 | ||
| 20260831103102 | 75 | 39 | 0.0 | 0.0 | 0.00 | 0.01 | 0.00 | ||
| 20260831102101 | 76 | 39 | 0.0 | 0.0 | 0.00 | 0.01 | 0.00 | ||
| 20260831100558 | 75 | 39 | 0.0 | 0.0 | 0.00 | 0.01 | 0.00 | ||
| 20260831100059 | 75 | 39 | 0.0 | 0.0 | 0.00 | 0.01 | 0.00 | ||
| 20260831095059 | 75 | 39 | 0.0 | 0.0 | 0.00 | 0.01 | 0.00 | ||
| 20260831093057 | 76 | 39 | 0.0 | 0.0 | 0.00 | 0.01 | 0.00 | ||
| 20260831092554 | 76 | 39 | 0.0 | 0.0 | 0.00 | 0.01 | 0.00 | ||
| 20260831092056 | 75 | 39 | 0.0 | 0.0 | 0.00 | 0.01 | 0.00 | ||
| 20260831091553 | 76 | 39 | 0.0 | 0.0 | 0.00 | 0.01 | 0.00 | ||
| 20260831091052 | 76 | 39 | 0.0 | 0.0 | 0.00 | 0.01 | 0.00 | ||
| 20260831090549 | 76 | 39 | 0.0 | 0.0 | 0.00 | 0.01 | 0.00 | ||
| 20260831090050 | 76 | 39 | 0.0 | 0.0 | 0.00 | 0.01 | 0.00 | ||
| 20260831085545 | 75 | 39 | 0.0 | 0.0 | 0.00 | 0.01 | 0.00 | ||
| 20260831085046 | 76 | 39 | 0.0 | 0.0 | 0.00 | 0.01 | 0.00 | ||
| 20260831084543 | 76 | 39 | 0.0 | 0.0 | 0.00 | 0.01 | 0.00 | ||
| 20260831084043 | 76 | 39 | 0.0 | 0.0 | 0.00 | 0.01 | 0.00 | ||
| 20260831083542 | 75 | 39 | 0.0 | 0.0 | 0.00 | 0.01 | 0.00 | ||
| 20260831083043 | 76 | 39 | 0.0 | 0.0 | 0.00 | 0.01 | 0.00 | ||
| 20260831081536 | 75 | 39 | 0.0 | 0.0 | 0.00 | 0.01 | 0.00 | ||
| 20260831081037 | 75 | 39 | 0.0 | 0.0 | 0.00 | 0.01 | 0.00 | ||
| 20260831080035 | 76 | 39 | 0.0 | 0.0 | 0.00 | 0.01 | 0.00 | ||
| 20260831075533 | 76 | 39 | 0.0 | 0.0 | 0.00 | 0.01 | 0.00 | ||
| 20260831075035 | 76 | 39 | 0.0 | 0.0 | 0.00 | 0.01 | 0.00 | ||
| 20260831074532 | 75 | 39 | 0.0 | 0.0 | 0.00 | 0.01 | 0.00 | ||
| 20260831074033 | 76 | 39 | 0.0 | 0.0 | 0.00 | 0.01 | 0.00 | ||
| 20260831073530 | 76 | 39 | 0.0 | 0.0 | 0.00 | 0.01 | 0.00 | ||
| 20260831073031 | 76 | 39 | 0.0 | 0.0 | 0.00 | 0.01 | 0.00 | ||
| 20260831072529 | 76 | 39 | 0.0 | 0.0 | 0.00 | 0.01 | 0.00 | ||
| 20260831072030 | 76 | 39 | 0.0 | 0.0 | 0.00 | 0.01 | 0.00 | ||
| 20260831071527 | 76 | 39 | 0.0 | 0.0 | 0.00 | 0.01 | 0.00 | ||
| 20260831070525 | 76 | 39 | 0.0 | 0.0 | 0.00 | 0.01 | 0.00 | ||
| 20260831065522 | 76 | 39 | 0.0 | 0.0 | 0.00 | 0.01 | 0.00 | ||
| 20260831065021 | 76 | 39 | 0.0 | 0.0 | 0.00 | 0.01 | 0.00 | ||
| 20260831064519 | 76 | 39 | 0.0 | 0.0 | 0.00 | 0.01 | 0.00 | ||
| 20260831064019 | 76 | 39 | 0.0 | 0.0 | 0.00 | 0.01 | 0.00 | ||
| 20260831063018 | 76 | 39 | 0.0 | 0.0 | 0.00 | 0.16 | 0.01 | ||
| 20260831062514 | 77 | 39 | 0.0 | 0.0 | 0.00 | 0.16 | 0.01 | ||
| 20260831061513 | 77 | 39 | 0.0 | 0.0 | 0.00 | 0.16 | 0.01 | ||
| 20260831060514 | 76 | 39 | 0.0 | 0.0 | 0.00 | 0.16 | 0.01 | ||
| 20260831060013 | 76 | 39 | 0.0 | 0.0 | 0.00 | 0.16 | 0.01 | ||
| 20260831055511 | 76 | 39 | 0.0 | 0.0 | 0.00 | 0.16 | 0.01 | ||
| 20260831055014 | 77 | 39 | 0.0 | 0.0 | 0.00 | 0.16 | 0.01 | ||
| 20260831054510 | 77 | 39 | 0.0 | 0.0 | 0.00 | 0.16 | 0.01 | ||
| 20260831053506 | 77 | 39 | 0.0 | 0.0 | 0.00 | 0.16 | 0.01 | ||
| 20260831053007 | 77 | 39 | 0.0 | 0.0 | 0.00 | 0.16 | 0.01 | ||
| 20260831052505 | 77 | 39 | 0.0 | 0.0 | 0.00 | 0.16 | 0.01 | ||
| 20260831052006 | 77 | 39 | 0.0 | 0.0 | 0.00 | 0.16 | 0.01 | ||
| 20260831051502 | 76 | 39 | 0.0 | 0.0 | 0.00 | 0.16 | 0.01 | ||
| 20260831051003 | 77 | 39 | 0.0 | 0.0 | 0.00 | 0.16 | 0.01 | ||
| 20260831050501 | 77 | 39 | 0.0 | 0.0 | 0.00 | 0.16 | 0.01 | ||
| 20260831050002 | 77 | 39 | 0.0 | 0.0 | 0.00 | 0.16 | 0.01 | ||
| 20260831045001 | 77 | 39 | 0.0 | 0.0 | 0.00 | 0.16 | 0.01 | ||
| 20260831044459 | 77 | 39 | 0.0 | 0.0 | 0.00 | 0.16 | 0.01 | ||
| 20260831044000 | 77 | 39 | 0.0 | 0.0 | 0.00 | 0.16 | 0.01 | ||
| 20260831043459 | 78 | 39 | 0.0 | 0.0 | 0.00 | 0.16 | 0.01 | ||
| 20260831043000 | 77 | 39 | 0.0 | 0.0 | 0.00 | 0.16 | 0.01 | ||
| 20260831042458 | 77 | 39 | 0.0 | 0.0 | 0.00 | 0.16 | 0.01 | ||
| 20260831041959 | 77 | 39 | 0.0 | 0.0 | 0.00 | 0.16 | 0.01 | ||
| 20260831041457 | 77 | 39 | 0.0 | 0.0 | 0.00 | 0.16 | 0.01 | ||
| 20260831040958 | 77 | 39 | 0.0 | 0.0 | 0.00 | 0.16 | 0.01 | ||
| 20260831040456 | 78 | 39 | 0.0 | 0.0 | 0.00 | 0.16 | 0.01 | ||
| 20260831035957 | 76 | 39 | 0.0 | 0.0 | 0.00 | 0.16 | 0.01 | ||
| 20260831035456 | 78 | 39 | 0.0 | 0.0 | 0.00 | 0.16 | 0.01 | ||
| 20260831034957 | 77 | 39 | 0.0 | 0.0 | 0.00 | 0.16 | 0.01 | ||
| 20260831034455 | 77 | 39 | 0.0 | 0.0 | 0.00 | 0.16 | 0.01 | ||
| 20260831033956 | 78 | 39 | 0.0 | 0.0 | 0.00 | 0.16 | 0.01 | ||
| 20260831033454 | 78 | 53 | 0.9 | 0.9 | 0.00 | 0.16 | 0.01 | ||
| 20260831032956 | 78 | 34 | 0.0 | 0.0 | 0.00 | 0.16 | 0.01 | ||
| 20260831032452 | 78 | 34 | 0.0 | 0.0 | 0.00 | 0.16 | 0.01 | ||
| 20260831031953 | 78 | 34 | 0.0 | 0.0 | 0.00 | 0.16 | 0.01 | ||
| 20260831031451 | 78 | 34 | 0.0 | 0.0 | 0.00 | 0.16 | 0.01 | ||
| 20260831030952 | 78 | 34 | 0.0 | 0.0 | 0.00 | 0.16 | 0.01 | ||
| 20260831030450 | 78 | 34 | 0.0 | 0.0 | 0.00 | 0.16 | 0.01 | ||
| 20260831025951 | 77 | 34 | 0.0 | 0.0 | 0.00 | 0.16 | 0.01 | ||
| 20260831025449 | 78 | 34 | 0.0 | 0.0 | 0.00 | 0.16 | 0.01 | ||
| 20260831024950 | 79 | 34 | 0.0 | 0.0 | 0.00 | 0.16 | 0.01 | ||
| 20260831024448 | 78 | 34 | 0.0 | 0.0 | 0.00 | 0.16 | 0.01 | ||
| 20260831023950 | 78 | 34 | 0.0 | 0.0 | 0.00 | 0.16 | 0.01 | ||
| 20260831022949 | 78 | 34 | 0.0 | 0.0 | 0.00 | 0.16 | 0.01 | ||
| 20260831022447 | 78 | 34 | 0.0 | 0.0 | 0.00 | 0.16 | 0.01 | ||
| 20260831021948 | 78 | 34 | 0.0 | 0.0 | 0.00 | 0.16 | 0.01 | ||
| 20260831020947 | 78 | 75 | 0.0 | 0.0 | 0.00 | 0.16 | 0.01 | ||
| 20260831020445 | 78 | 75 | 0.0 | 0.0 | 0.00 | 0.16 | 0.01 | ||
| 20260831015946 | 79 | 75 | 0.0 | 0.0 | 0.00 | 0.16 | 0.01 | ||
| 20260831015445 | 78 | 75 | 0.0 | 0.0 | 0.00 | 0.16 | 0.01 | ||
| 20260831014946 | 79 | 75 | 0.0 | 0.0 | 0.00 | 0.16 | 0.01 | ||
| 20260831014444 | 78 | 75 | 0.0 | 0.0 | 0.00 | 0.16 | 0.01 | ||
| 20260831013945 | 79 | 75 | 0.0 | 0.0 | 0.00 | 0.16 | 0.01 | ||
| 20260831013443 | 79 | 75 | 0.0 | 0.0 | 0.00 | 0.16 | 0.01 | ||
| 20260831012945 | 78 | 75 | 0.0 | 0.0 | 0.00 | 0.16 | 0.01 | ||
| 20260831012440 | 78 | 75 | 0.0 | 0.0 | 0.00 | 0.16 | 0.01 | ||
| 20260831011941 | 78 | 75 | 0.0 | 0.0 | 0.00 | 0.16 | 0.01 | ||
| 20260831011440 | 79 | 75 | 0.0 | 0.0 | 0.00 | 0.16 | 0.01 | ||
| 20260831010941 | 79 | 75 | 0.0 | 0.0 | 0.00 | 0.16 | 0.01 | ||
| 20260831010437 | 79 | 75 | 0.0 | 0.0 | 0.00 | 0.16 | 0.01 | ||
| 20260831005935 | 79 | 75 | 0.0 | 0.0 | 0.00 | 0.16 | 0.01 | ||
| 20260831005432 | 79 | 75 | 0.0 | 0.0 | 0.00 | 0.16 | 0.01 | ||
| 20260831004933 | 79 | 75 | 0.0 | 0.0 | 0.00 | 0.16 | 0.01 | ||
| 20260831004432 | 80 | 75 | 0.0 | 0.0 | 0.00 | 0.16 | 0.01 | ||
| 20260831003934 | 79 | 75 | 0.0 | 0.0 | 0.00 | 0.16 | 0.01 | ||
| 20260831002932 | 80 | 75 | 0.0 | 0.0 | 0.00 | 0.16 | 0.01 | ||
| 20260831001932 | 80 | 121 | 2.6 | 1.7 | 0.00 | 0.16 | 0.01 | ||
| 20260831001430 | 80 | 37 | 0.0 | 0.0 | 0.00 | 0.16 | 0.01 | ||
| 20260831000931 | 80 | 37 | 0.0 | 0.0 | 0.00 | 0.16 | 0.01 | ||
| 20260831000429 | 80 | 37 | 0.0 | 0.0 | 0.00 | 0.16 | 0.01 | ||
| 20260830235930 | 80 | 37 | 0.0 | 0.0 | 0.00 | 0.16 | 0.01 | ||
| 20260830235428 | 80 | 65 | 0.9 | 0.9 | 0.00 | 0.16 | 0.01 | ||
| 20260830234929 | 80 | 51 | 0.0 | 0.0 | 0.00 | 0.16 | 0.01 | ||
| 20260830234428 | 80 | 51 | 0.0 | 0.0 | 0.00 | 0.16 | 0.01 | ||
| 20260830233930 | 81 | 51 | 0.0 | 0.0 | 0.00 | 0.16 | 0.01 | ||
| 20260830232928 | 80 | 63 | 0.0 | 0.0 | 0.00 | 0.16 | 0.01 | ||
| 20260830232426 | 80 | 63 | 0.0 | 0.0 | 0.00 | 0.16 | 0.01 | ||
| 20260830231426 | 80 | 68 | 1.7 | 1.7 | 0.00 | 0.16 | 0.01 | ||
| 20260830230927 | 80 | 39 | 0.0 | 0.0 | 0.00 | 0.16 | 0.01 | ||
| 20260830230425 | 81 | 39 | 0.0 | 0.0 | 0.00 | 0.16 | 0.01 | ||
| 20260830225926 | 81 | 39 | 0.0 | 0.0 | 0.00 | 0.16 | 0.01 | ||
| 20260830225425 | 81 | 39 | 0.0 | 0.0 | 0.00 | 0.16 | 0.01 |